Change the Weather History Date:

Tuesday, January 15, 2013

  Actual Average Record
Temperature  
Mean Temperature 48 °F -  
Max Temperature 64 °F 65 °F - ()
Min Temperature 33 °F 44 °F - ()
Degree Days  
Heating Degree Days 16    
Moisture  
Dew Point 33 °F    
Average Humidity 57    
Maximum Humidity 87    
Minimum Humidity 17    
Precipitation  
Precipitation 0.00 in 0.05 in - ()
Sea Level Pressure  
Sea Level Pressure 30.31 in    
Wind  
Wind Speed 5 mph ()    
Max Wind Speed 8 mph    
Max Gust Speed -    
Visibility 6.0 miles    
Events      
T = Trace of Precipitation, MM = Missing Value Source: Averaged Metar Reports

Daily Weather History Graph

Daily Weather History Graph

Search for Another Location

Airport or City:

Trip Planner

Search our weather history database for the weather conditions in past years. The results will help you decide how hot, cold, wet, or windy it might be!

Date:

Astronomy

Jan. 15, 2013 Rise Set
Actual Time 7:32 AM WET 5:51 PM WET
Civil Twilight 7:05 AM WET 6:17 PM WET
Nautical Twilight 6:35 AM WET 6:47 PM WET
Astronomical Twilight 6:06 AM WET 7:16 PM WET
Moon 9:48 AM WET (1/15) 10:06 PM WET (1/15)
Length of Visible Light 11h 11m
Length of Day
10h 19m
Waxing Crescent, 17% of the Moon is Illuminated
Jan 15
Waxing Crescent
Jan 18
First Quarter
Jan 27
Full
Feb 3
Last Quarter
Feb 10
New

Hourly Weather History & Observations

Time (WET) Temp. Windchill Dew Point Humidity Pressure Visibility Wind Dir Wind Speed Gust Speed Precip Events Conditions
12:00 AM 42 °F - 37 °F 75% 30.34 in 6 mi East 4.6 mph - -  
12:00 AM 42.8 °F 40.1 °F 37.4 °F 81% 30.30 in - East 4.6 mph - N/A   Clear
12:30 AM 42.8 °F 41.1 °F 37.4 °F 81% 30.30 in - ENE 3.5 mph - N/A   Clear
1:00 AM 39.2 °F 35.9 °F 35.6 °F 87% 30.30 in - East 4.6 mph - N/A   Clear
1:30 AM 39.2 °F 34.2 °F 35.6 °F 87% 30.30 in - East 6.9 mph - N/A   Clear
2:00 AM 41.0 °F 35.8 °F 35.6 °F 81% 30.30 in - ESE 8.1 mph - N/A   Clear
2:30 AM 39.2 °F 37.0 °F 33.8 °F 81% 30.30 in - ESE 3.5 mph - N/A   Clear
3:00 AM 38 °F - 34 °F 80% 30.36 in 6 mi East 8.1 mph - -  
3:00 AM 37.4 °F 31.4 °F 33.8 °F 87% 30.30 in - East 8.1 mph - N/A   Clear
3:30 AM 39.2 °F 35.0 °F 35.6 °F 87% 30.30 in - East 5.8 mph - N/A   Clear
4:00 AM 39.2 °F 35.9 °F 35.6 °F 87% 30.30 in - NE 4.6 mph - N/A   Clear
4:30 AM 39.2 °F 35.0 °F 33.8 °F 81% 30.30 in - ESE 5.8 mph - N/A   Clear
5:00 AM 39.2 °F 35.9 °F 33.8 °F 81% 30.27 in - East 4.6 mph - N/A   Clear
5:30 AM 39.2 °F - 33.8 °F 81% 30.27 in - ENE 2.3 mph - N/A   Clear
6:00 AM 37 °F - 32 °F 74% 30.35 in 6 mi East 5.8 mph - -  
6:00 AM 37.4 °F 33.8 °F 32.0 °F 81% 30.27 in - East 4.6 mph - N/A   Clear
6:30 AM 35.6 °F 29.9 °F 30.2 °F 81% 30.30 in - East 6.9 mph - N/A   Clear
7:00 AM 35.6 °F 31.7 °F 30.2 °F 81% 30.30 in - ENE 4.6 mph - N/A   Clear
7:30 AM 35.6 °F 32.8 °F 30.2 °F 81% 30.30 in - East 3.5 mph - N/A   Clear
8:00 AM 33.8 °F 28.6 °F 30.2 °F 87% 30.30 in - East 5.8 mph - N/A   Clear
8:30 AM 39.2 °F 35.0 °F 33.8 °F 81% 30.30 in - East 5.8 mph - N/A   Clear
9:00 AM 44 °F - 35 °F 59% 30.36 in 6 mi East 8.1 mph - -  
9:00 AM 42.8 °F 38.0 °F 33.8 °F 70% 30.33 in - East 8.1 mph - N/A   Clear
9:30 AM 48.2 °F - 33.8 °F 58% 30.33 in - ESE 4.6 mph - N/A   Clear
10:00 AM 50.0 °F - 32.0 °F 50% 30.33 in - East 5.8 mph - N/A   Clear
10:30 AM 53.6 °F - 33.8 °F 47% 30.33 in - ENE 4.6 mph - N/A   Clear
11:00 AM 53.6 °F - 33.8 °F 47% 30.33 in - NNE 6.9 mph - N/A   Clear
11:30 AM 55.4 °F - 35.6 °F 47% 30.33 in - North 5.8 mph - N/A   Clear
12:00 PM 57 °F - 36 °F 34% 30.32 in 6 mi NNE 6.9 mph - -  
12:00 PM 57.2 °F - 37.4 °F 48% 30.33 in - NNE 5.8 mph - N/A   Clear
12:30 PM 59.0 °F - 35.6 °F 42% 30.30 in - NNE 6.9 mph - N/A   Clear
1:00 PM 60.8 °F - 33.8 °F 36% 30.30 in - ENE 5.8 mph - N/A   Clear
1:30 PM 62.6 °F - 33.8 °F 34% 30.30 in - Variable 3.5 mph - N/A   Clear
2:00 PM 62.6 °F - 33.8 °F 34% 30.30 in - NW 4.6 mph - N/A   Clear
2:30 PM 62.6 °F - 32.0 °F 32% 30.27 in - NW 4.6 mph - N/A   Clear
2:45 PM 63 °F - 32 °F 20% 30.26 in 6 mi North 4.6 mph - -  
3:00 PM 62.6 °F - 32.0 °F 32% 30.27 in - North 4.6 mph - N/A   Clear
3:30 PM 64.4 °F - 28.4 °F 26% 30.27 in - North 4.6 mph - N/A   Clear
4:00 PM 64.4 °F - 28.4 °F 26% 30.27 in - North 4.6 mph - N/A   Clear
4:30 PM 64.4 °F - 30.2 °F 28% 30.30 in - ENE 3.5 mph - N/A   Clear
5:00 PM 64.4 °F - 30.2 °F 28% 30.30 in - Variable 2.3 mph - N/A   Clear
5:30 PM 62.6 °F - 28.4 °F 27% 30.30 in - NNW 5.8 mph - N/A   Clear
5:46 PM 61 °F - 28 °F 17% 30.30 in 6 mi North 6.9 mph - -  
6:00 PM 60.8 °F - 28.4 °F 29% 30.30 in - North 6.9 mph - N/A   Clear
6:30 PM 57.2 °F - 30.2 °F 36% 30.30 in - NE 8.1 mph - N/A   Clear
7:00 PM 55.4 °F - 30.2 °F 38% 30.30 in - NE 6.9 mph - N/A   Clear
7:30 PM 53.6 °F - 32.0 °F 44% 30.33 in - NE 5.8 mph - N/A   Clear
8:00 PM 53.6 °F - 32.0 °F 44% 30.33 in - NE 5.8 mph - N/A   Clear
8:30 PM 51.8 °F - 32.0 °F 47% 30.33 in - East 5.8 mph - N/A   Clear
9:00 PM 48 °F - 31 °F 40% 30.36 in 6 mi East 6.9 mph - -  
9:00 PM 48.2 °F - 30.2 °F 50% 30.33 in - East 6.9 mph - N/A   Clear
9:30 PM 48.2 °F - 32.0 °F 54% 30.33 in - East 4.6 mph - N/A   Clear
10:00 PM 48.2 °F - 32.0 °F 54% 30.33 in - East 5.8 mph - N/A   Clear
10:30 PM 46.4 °F 44.3 °F 32.0 °F 57% 30.33 in - East 4.6 mph - N/A   Clear
11:00 PM 46.4 °F 43.5 °F 32.0 °F 57% 30.33 in - ESE 5.8 mph - N/A   Clear
11:30 PM 44.6 °F 43.1 °F 32.0 °F 61% 30.33 in - ESE 3.5 mph - N/A   Clear